This is the latest recevied weather packets stored in our database for station/object W9KHP-1. If no packets are shown the sender has not sent any weather packets the latest 10 day(s).
| Time | Temp. | Humidity | Pressure | Rain* | Wind** | Luminosity | Snow |
|---|---|---|---|---|---|---|---|
| 1778166528 | 14.44° C | 45% | 1019.8 hPa | 0 mm | - | 314 W/m² | - |
| 1778166224 | 14.44° C | 44% | 1020 hPa | 0 mm | - | 127 W/m² | - |
| 1778165920 | 14.44° C | 45% | 1019.8 hPa | 0 mm | - | 79 W/m² | - |
| 1778165617 | 15° C | 47% | 1020 hPa | 0 mm | - | 103 W/m² | - |
| 1778165314 | 13.89° C | 50% | 1020 hPa | 0 mm | - | 242 W/m² | - |
| 1778165011 | 13.89° C | 46% | 1019.9 hPa | 0 mm | - | 239 W/m² | - |
| 1778164708 | 13.89° C | 47% | 1020 hPa | 0 mm | - | 319 W/m² | - |
| 1778164405 | 13.89° C | 49% | 1019.9 hPa | 0 mm | - | 144 W/m² | - |
| 1778164101 | 13.33° C | 47% | 1019.9 hPa | 0 mm | - | 154 W/m² | - |
| 1778163797 | 13.33° C | 50% | 1019.9 hPa | 0 mm | - | 69 W/m² | - |
| 1778163494 | 13.33° C | 53% | 1019.7 hPa | 0 mm | - | 90 W/m² | - |
| 1778163191 | 13.33° C | 49% | 1019.9 hPa | 0 mm | - | 188 W/m² | - |
| 1778162887 | 12.78° C | 51% | 1020.1 hPa | 0 mm | - | 178 W/m² | - |
| 1778162585 | 13.33° C | 50% | 1020.1 hPa | 0 mm | - | 104 W/m² | - |
| 1778162282 | 12.78° C | 48% | 1020 hPa | 0 mm | - | 58 W/m² | - |
| 1778161979 | 12.78° C | 52% | 1020 hPa | 0 mm | - | 58 W/m² | - |
| 1778161675 | 13.33° C | 46% | 1019.9 hPa | 0 mm | - | 79 W/m² | - |
| 1778161372 | 12.78° C | 58% | 1019.6 hPa | 0 mm | - | 229 W/m² | - |
| 1778161068 | 12.78° C | 55% | 1019.9 hPa | 0 mm | - | 139 W/m² | - |
| 1778160765 | 13.33° C | 53% | 1019.8 hPa | 0 mm | - | 59 W/m² | - |
| 1778160462 | 12.78° C | 58% | 1019.6 hPa | 0 mm | - | 228 W/m² | - |
| 1778160159 | 12.78° C | 60% | 1019.7 hPa | 0 mm | - | 184 W/m² | - |
| 1778159856 | 12.22° C | 64% | 1019.6 hPa | 0 mm | - | 261 W/m² | - |
| 1778159553 | 11.67° C | 65% | 1019.7 hPa | 0 mm | - | 85 W/m² | - |
| 1778159249 | 11.67° C | 65% | 1019.6 hPa | 0 mm | - | 51 W/m² | - |
* Rain latest hour (hover to see other rain measurements)
** Current wind speed in m/s (hover to see current wind gust speed)